Location: The Jewett Observatory
(46.7288°N, 117.1525°W)
Time: 21:40:53
(UTC-08:00)

Amateur Radio Satellites - All Passes

Search period start: 08 February 2016 21:10
Search period end: 09 February 2016 21:10
Location: The Jewett Observatory, 46.7288°N, 117.1525°W

Satellite Date Start Highest point End Downlink Frequencies (MHz)
Time Altitude Azimuth
STRAND 1 08 Feb 21:11:00 21:13:01 12° 306° (NW) 21:15:03 437.568
PCSat 08 Feb 21:11:17 21:15:15 21° 253° (WSW) 21:19:11 145.827
DX 1 08 Feb 21:13:05 21:16:24 21° 63° (ENE) 21:19:44 434.975-435.025
TIGRISAT 08 Feb 21:16:33 21:19:09 16° 91° (E) 21:21:46 435.000
PRISM 08 Feb 21:31:18 21:33:13 13° 301° (WNW) 21:35:07 437.425
DELFI C3 08 Feb 21:31:24 21:34:48 27° 265° (W) 21:38:15 145.870
AIST 1 08 Feb 21:53:36 21:57:54 56° 266° (W) 22:02:07
ZACube-1 08 Feb 21:57:15 21:59:03 12° 271° (W) 22:00:50 437.345
50 SAT 08 Feb 21:57:36 22:01:14 58° 73° (ENE) 22:04:55 437.505
UNISAT 6 08 Feb 21:59:36 22:03:45 44° 99° (E) 22:07:57 437.425
VELOX 1 08 Feb 22:02:09 22:06:32 57° 72° (ENE) 22:10:56 145.980
FUNcube-1 08 Feb 22:08:32 22:08:52 10° 273° (W) 22:09:11 145.935
ISS 08 Feb 22:09:06 22:12:13 43° 214° (SW) 22:15:19 145.825
AISAT 08 Feb 22:18:30 22:23:00 86° 76° (ENE) 22:27:30 437.250
HUMSAT D 08 Feb 22:24:42 22:27:35 18° 268° (W) 22:30:28 437.325/437.525
POLYITAN 1 08 Feb 22:26:59 22:30:17 22° 93° (E) 22:33:34 437.675
QB50P2 08 Feb 22:27:38 22:31:01 23° 94° (E) 22:34:23 145.880/145.840
ESTCUBE 1 08 Feb 22:35:49 22:40:18 61° 259° (W) 22:44:50 437.505/2401.250
BUGSAT 1 08 Feb 22:37:19 22:39:19 13° 90° (E) 22:41:18 437.445
UKube-1 08 Feb 22:37:59 22:42:17 66° 258° (WSW) 22:46:38 .
GONETS M04 08 Feb 22:38:54 22:41:43 12° 291° (WNW) 22:44:32
CUBEBUG 1 08 Feb 22:41:40 22:46:06 70° 257° (WSW) 22:50:33 437.445
ANTELSAT 08 Feb 22:44:38 22:48:56 65° 286° (WNW) 22:53:16 437.575/2403.000
RS-15 08 Feb 22:47:59 22:56:38 24° 261° (W) 23:05:23 29.354- 29.394
DX 1 08 Feb 22:48:07 22:52:20 45° 261° (W) 22:56:34 434.975-435.025
Cosmos 2499 08 Feb 22:48:11 22:54:01 21° 284° (WNW) 22:59:36 435.465 / 435.565
SPROUT 08 Feb 22:49:19 22:53:31 53° 72° (ENE) 22:57:43 437.525
TIGRISAT 08 Feb 22:51:58 22:56:12 57° 288° (WNW) 23:00:29 435.000
POPSAT HIP 1 08 Feb 22:57:15 23:01:17 43° 99° (E) 23:05:18 437.405
NANOSAT C BR1 08 Feb 23:02:39 23:06:44 49° 100° (E) 23:10:48 145.865
TISAT 1 08 Feb 23:03:14 23:06:57 30° 67° (ENE) 23:10:39 437.305
DUCHIFAT 1 08 Feb 23:04:36 23:08:41 49° 100° (E) 23:12:44 145.980
QB50P1 08 Feb 23:09:56 23:14:07 61° 101° (ESE) 23:18:15 145.935-145.965
BEESAT 08 Feb 23:18:37 23:20:14 12° 55° (NE) 23:21:51 436.000
Cosmos 2491 08 Feb 23:33:13 23:36:55 13° 48° (NE) 23:40:36 435.465 / 435.565
50 SAT 08 Feb 23:34:22 23:35:39 11° 271° (W) 23:36:57 437.505
UNISAT 6 08 Feb 23:36:59 23:40:14 21° 296° (WNW) 23:43:31 437.425
VELOX 1 08 Feb 23:40:31 23:43:23 17° 269° (W) 23:46:15 145.980
BEESAT 3 08 Feb 23:46:29 23:48:29 13° 30° (NNE) 23:50:27 437.485
AISAT 08 Feb 23:59:01 00:00:07 11° 273° (W) 00:01:13 437.250
POLYITAN 1 09 Feb 00:02:21 00:06:14 37° 291° (WNW) 00:10:07 437.675
QB50P2 09 Feb 00:03:05 00:06:57 36° 291° (WNW) 00:10:48 145.880/145.840
SWISSCUBE 09 Feb 00:07:39 00:11:53 33° 66° (ENE) 00:16:09 437.505
BEESAT 2 09 Feb 00:08:35 00:10:48 14° 31° (NNE) 00:13:00 435.950
BUGSAT 1 09 Feb 00:11:07 00:15:07 58° 288° (WNW) 00:19:04 437.445
SPROUT 09 Feb 00:27:04 00:29:49 16° 269° (W) 00:32:35 437.525
POPSAT HIP 1 09 Feb 00:33:44 00:36:49 20° 296° (WNW) 00:39:53 437.405
TISAT 1 09 Feb 00:38:56 00:42:36 28° 264° (W) 00:46:16 437.305
NANOSAT C BR1 09 Feb 00:39:16 00:42:10 18° 297° (WNW) 00:45:02 145.865
DUCHIFAT 1 09 Feb 00:41:11 00:44:04 18° 297° (WNW) 00:46:55 145.980
ITUPSAT 1 09 Feb 00:43:20 00:48:02 62° 72° (ENE) 00:52:47 437.325
QB50P1 09 Feb 00:46:58 00:49:27 15° 299° (WNW) 00:51:55 145.935-145.965
CUSAT 1 09 Feb 00:50:24 00:57:45 42° 89° (E) 01:05:08 437.405
BEESAT 09 Feb 00:52:28 00:57:12 77° 74° (ENE) 01:02:00 436.000
JAS-2 09 Feb 01:09:57 01:15:24 41° 96° (E) 01:20:24 435.910
KKS-1 09 Feb 01:13:23 01:16:40 21° 62° (ENE) 01:19:58 437.445
DANDE 09 Feb 01:15:01 01:22:06 39° 87° (E) 01:29:45 436.750
Oscar 19 09 Feb 01:15:19 01:20:26 64° 102° (ESE) 01:25:31 437.125/150
BEESAT 3 09 Feb 01:23:03 01:27:01 65° 51° (NE) 01:30:56 437.485
Cosmos 2491 09 Feb 01:27:40 01:36:14 54° 74° (ENE) 01:44:46 435.465 / 435.565
Gurwin Techsat 1B 09 Feb 01:38:07 01:43:09 41° 98° (E) 01:48:10 435.225
SWISSCUBE 09 Feb 01:45:24 01:49:39 32° 264° (W) 01:53:58 437.505
BEESAT 2 09 Feb 01:45:25 01:49:26 71° 52° (NE) 01:53:24 435.950
AIST 2 09 Feb 01:55:24 01:58:15 18° 34° (NE) 02:01:06 435.215
AO-7 09 Feb 02:16:13 02:21:58 20° 89° (E) 02:27:40 29.400- 29.500
PHONESAT 2.4 09 Feb 02:17:08 02:19:47 23° 169° (SSE) 02:22:26 2401.200-2431.200
YUBILEINY 09 Feb 02:21:30 02:29:35 43° 86° (E) 02:37:44 435.215
ITAMSAT 1 09 Feb 02:21:53 02:27:02 53° 100° (E) 02:32:08 435.822/435.867
ITUPSAT 1 09 Feb 02:23:12 02:26:19 17° 270° (W) 02:29:26 437.325
CUSAT 1 09 Feb 02:32:09 02:39:56 52° 288° (WNW) 02:47:42 437.405
BEESAT 09 Feb 02:33:11 02:35:35 14° 272° (W) 02:37:58 436.000
STARS 09 Feb 02:33:59 02:38:22 68° 73° (ENE) 02:42:45 437.465
MOZHAYETS 4 09 Feb 02:34:57 02:39:20 48° 70° (ENE) 02:43:45
Cosmos 2504 09 Feb 02:42:39 02:45:46 12° 69° (ENE) 02:48:53 435.465 / 435.565
KKS-1 09 Feb 02:48:36 02:52:56 49° 260° (W) 02:57:17 437.445
JAS-2 09 Feb 02:55:16 03:00:23 32° 298° (WNW) 03:05:06 435.910
Oscar 19 09 Feb 02:55:36 02:59:18 20° 300° (WNW) 03:02:59 437.125/150
DANDE 09 Feb 02:57:04 03:04:47 57° 288° (WNW) 03:13:11 436.750
BEESAT 3 09 Feb 03:02:08 03:04:17 14° 249° (WSW) 03:06:27 437.485
CUBESAT XI-V 09 Feb 03:14:51 03:17:45 16° 60° (ENE) 03:20:39 437.345
AUBIESAT-1 09 Feb 03:17:02 03:17:56 11° 97° (E) 03:18:51 437.475
Gurwin Techsat 1B 09 Feb 03:18:20 03:22:59 31° 296° (WNW) 03:27:36 435.225
BEESAT 2 09 Feb 03:24:53 03:26:47 13° 250° (WSW) 03:28:41 435.950
Cosmos 2491 09 Feb 03:24:59 03:32:47 38° 275° (W) 03:40:36 435.465 / 435.565
AIST 2 09 Feb 03:33:09 03:37:20 85° 231° (SW) 03:41:26 435.215
PHONESAT 2.4 09 Feb 03:53:46 03:56:34 26° 186° (S) 03:59:22 2401.200-2431.200
SO-50 09 Feb 03:56:12 03:59:25 18° 110° (ESE) 04:02:39 436.795
ITAMSAT 1 09 Feb 04:02:00 04:06:10 25° 299° (WNW) 04:10:21 435.822/435.867
HORYU 2 09 Feb 04:03:48 04:08:07 47° 100° (E) 04:12:24 437.375
AO-7 09 Feb 04:07:30 04:15:55 86° 109° (ESE) 04:24:14 29.400- 29.500
STARS 09 Feb 04:12:59 04:15:12 14° 271° (W) 04:17:25 437.465
MOZHAYETS 4 09 Feb 04:13:24 04:16:46 20° 268° (W) 04:20:10
YUBILEINY 09 Feb 04:17:54 04:26:18 48° 288° (WNW) 04:34:50 435.215
CUSAT 1 09 Feb 04:20:12 04:24:06 14° 309° (NW) 04:27:56 437.405
Cosmos 2504 09 Feb 04:28:45 04:37:07 59° 91° (E) 04:45:47 435.465 / 435.565
M-CUBED/EXP-1 PRIME 09 Feb 04:38:54 04:42:12 61° 293° (WNW) 04:45:40 437.505
DANDE 09 Feb 04:45:01 04:49:46 16° 310° (NW) 04:54:37 436.750
AUBIESAT-1 09 Feb 04:49:30 04:52:49 55° 292° (WNW) 04:56:18 437.475
CUBESAT XI-V 09 Feb 04:49:55 04:54:35 71° 258° (WSW) 04:59:19 437.345
STRAND 1 09 Feb 05:09:59 05:14:29 32° 64° (ENE) 05:18:59 437.568
PRISM 09 Feb 05:15:32 05:15:47 10° 56° (ENE) 05:16:02 437.425
PHONESAT 2.4 09 Feb 05:31:28 05:33:14 14° 202° (SSW) 05:35:01 2401.200-2431.200
CUTE-I 09 Feb 05:32:51 05:37:41 32° 96° (E) 05:42:28 437.470
SO-50 09 Feb 05:34:26 05:39:22 75° 308° (NW) 05:44:21 436.795
HORYU 2 09 Feb 05:41:04 05:44:24 21° 297° (WNW) 05:47:43 437.375
Cubesat XI-IV 09 Feb 05:46:09 05:51:15 42° 98° (E) 05:56:20 437.490
AO-7 09 Feb 06:01:11 06:07:48 27° 311° (NW) 06:14:23 29.400- 29.500
LilacSat-2 09 Feb 06:02:01 06:05:43 51° 99° (E) 06:09:25 437.200
GOMX 1 09 Feb 06:08:50 06:11:57 18° 90° (E) 06:14:56 467.674
Cosmos 2504 09 Feb 06:23:03 06:30:56 38° 293° (WNW) 06:39:05 435.465 / 435.565
YUBILEINY 09 Feb 06:23:12 06:25:54 11° 315° (NW) 06:28:38 435.215
BRITE-PL 09 Feb 06:36:02 06:40:55 68° 100° (E) 06:45:23 437.365/2234.400
O/OREOS (USA 219) 09 Feb 06:42:51 06:44:55 13° 98° (E) 06:47:01 437.305
PRISM 09 Feb 06:46:14 06:50:23 81° 75° (ENE) 06:54:36 437.425
STRAND 1 09 Feb 06:48:50 06:53:34 38° 263° (W) 06:58:21 437.568
HO-68 09 Feb 07:12:05 07:18:05 28° 93° (E) 07:24:02 435.675
CUTE-I 09 Feb 07:12:49 07:17:47 39° 294° (WNW) 07:22:45 437.470
SO-50 09 Feb 07:17:08 07:20:42 19° 330° (NNW) 07:24:16 436.795
COMPASS 1 09 Feb 07:19:04 07:20:40 12° 88° (E) 07:22:15 437.405
CUTE 1.7 + AOD 2 09 Feb 07:22:43 07:26:09 23° 93° (E) 07:29:34 437.475
Cubesat XI-IV 09 Feb 07:26:30 07:31:12 31° 296° (WNW) 07:35:53 437.490
SEEDS 09 Feb 07:30:32 07:33:48 21° 93° (E) 07:37:03 437.485
DOVE 4 09 Feb 07:30:44 07:35:01 63° 100° (E) 07:39:08 437.250
LilacSat-2 09 Feb 07:37:33 07:39:40 15° 297° (WNW) 07:41:46 437.200
Cosmos 2499 09 Feb 07:44:14 07:48:45 15° 72° (ENE) 07:53:17 435.465 / 435.565
GOMX 1 09 Feb 07:46:03 07:50:25 48° 289° (WNW) 07:54:31 467.674
GONETS M04 09 Feb 07:47:04 07:54:39 36° 84° (E) 08:02:16
AAUSAT CUBESAT 2 09 Feb 07:47:13 07:50:19 19° 92° (E) 07:53:23 437.432
CANX-2 09 Feb 08:07:05 08:11:24 74° 102° (ESE) 08:15:42 2200.000
ANTELSAT 09 Feb 08:11:11 08:14:07 18° 62° (ENE) 08:17:03 437.575/2403.000
FUNcube-1 09 Feb 08:14:43 08:16:25 12° 89° (E) 08:18:08 145.935
BRITE-PL 09 Feb 08:15:44 08:18:47 17° 302° (WNW) 08:21:42 437.365/2234.400
TIGRISAT 09 Feb 08:18:04 08:21:12 20° 63° (ENE) 08:24:20 435.000
O/OREOS (USA 219) 09 Feb 08:19:13 08:23:42 73° 296° (WNW) 08:28:14 437.305
PRISM 09 Feb 08:25:35 08:26:18 10° 272° (W) 08:27:01 437.425
CINEMA 3 09 Feb 08:30:18 08:34:29 87° 281° (WNW) 08:38:38 145.822/145.860
CUBEBUG 2 09 Feb 08:41:50 08:45:51 45° 99° (E) 08:49:56 437.445
UWE-3 09 Feb 08:44:07 08:48:00 35° 97° (E) 08:51:55 435.000/436.395/437.385
Oscar 11 09 Feb 08:47:03 08:51:04 35° 97° (E) 08:55:03 145.826/435.025
COMPASS 1 09 Feb 08:52:31 08:56:45 72° 284° (WNW) 09:00:57 437.405
AO-85 09 Feb 08:57:43 09:00:06 13° 105° (ESE) 09:02:31 145.980
CUTE 1.7 + AOD 2 09 Feb 08:58:09 09:02:07 37° 291° (WNW) 09:06:05 437.475
HO-68 09 Feb 08:59:11 09:06:19 66° 292° (WNW) 09:13:25 435.675
UNISAT 6 09 Feb 09:01:11 09:05:23 55° 72° (ENE) 09:09:35 437.425
SEEDS 09 Feb 09:05:41 09:09:41 40° 290° (WNW) 09:13:40 437.485
DELFI C3 09 Feb 09:06:07 09:09:43 30° 96° (E) 09:13:19 145.870
DOVE 4 09 Feb 09:09:50 09:12:14 15° 300° (WNW) 09:14:35 437.250
AAUSAT CUBESAT 2 09 Feb 09:22:02 09:26:01 43° 289° (WNW) 09:30:00 437.432
POLYITAN 1 09 Feb 09:22:27 09:25:55 25° 66° (ENE) 09:29:23 437.675
QB50P2 09 Feb 09:23:04 09:26:36 26° 66° (ENE) 09:30:07 145.880/145.840
BUGSAT 1 09 Feb 09:29:50 09:32:24 16° 61° (ENE) 09:34:55 437.445
Cosmos 2499 09 Feb 09:31:31 09:40:09 68° 93° (E) 09:48:58 435.465 / 435.565
ZACube-1 09 Feb 09:39:32 09:43:45 84° 284° (WNW) 09:48:01 437.345
GONETS M04 09 Feb 09:42:33 09:51:04 58° 285° (WNW) 09:59:40
CANX-2 09 Feb 09:44:34 09:46:43 14° 300° (WNW) 09:48:50 2200.000
ANTELSAT 09 Feb 09:46:18 09:50:31 51° 260° (W) 09:54:42 437.575/2403.000
FUNcube-1 09 Feb 09:48:58 09:53:09 70° 286° (WNW) 09:57:23 145.935
POPSAT HIP 1 09 Feb 09:52:19 09:56:24 48° 71° (ENE) 10:00:28 437.405
TIGRISAT 09 Feb 09:53:30 09:57:38 45° 261° (W) 10:01:45 435.000
NANOSAT C BR1 09 Feb 09:57:22 10:01:29 53° 72° (ENE) 10:05:36 145.865
DUCHIFAT 1 09 Feb 09:59:05 10:03:11 52° 72° (ENE) 10:07:18 145.980
O/OREOS (USA 219) 09 Feb 10:02:06 10:03:58 12° 317° (NW) 10:05:51 437.305
HUMSAT D 09 Feb 10:03:41 10:07:47 55° 100° (E) 10:11:54 437.325/437.525
QB50P1 09 Feb 10:04:53 10:09:05 66° 73° (ENE) 10:13:17 145.935-145.965
AISAT 09 Feb 10:07:41 10:09:50 13° 89° (E) 10:11:58 437.250
CINEMA 3 09 Feb 10:10:32 10:10:57 10° 302° (WNW) 10:11:20 145.822/145.860
PCSat 09 Feb 10:11:46 10:16:34 33° 112° (ESE) 10:21:25 145.827
CUBEBUG 2 09 Feb 10:19:16 10:22:13 19° 296° (WNW) 10:25:12 437.445
UWE-3 09 Feb 10:20:58 10:24:20 24° 294° (WNW) 10:27:43 435.000/436.395/437.385
UKube-1 09 Feb 10:23:23 10:26:09 16° 91° (E) 10:28:55 .
Oscar 11 09 Feb 10:23:28 10:27:03 26° 294° (WNW) 10:30:38 145.826/435.025
AIST 1 09 Feb 10:25:18 10:29:40 73° 97° (E) 10:34:05
ESTCUBE 1 09 Feb 10:25:59 10:29:37 23° 93° (E) 10:33:13 437.505/2401.250
CUBEBUG 1 09 Feb 10:28:28 10:31:27 18° 91° (E) 10:34:24 437.445
DX 1 09 Feb 10:33:44 10:37:19 24° 94° (E) 10:40:53 434.975-435.025
AO-85 09 Feb 10:34:22 10:39:45 76° 124° (SE) 10:45:16 145.980
UNISAT 6 09 Feb 10:39:49 10:42:28 16° 269° (W) 10:45:06 437.425
DELFI C3 09 Feb 10:41:10 10:44:33 26° 293° (WNW) 10:47:55 145.870
SO-50 09 Feb 10:43:42 10:45:57 13° 19° (NNE) 10:48:09 436.795
HO-68 09 Feb 10:48:35 10:52:45 17° 313° (NW) 10:56:55 435.675
Oscar 19 09 Feb 10:57:42 11:01:21 20° 59° (ENE) 11:04:59 437.125/150
POLYITAN 1 09 Feb 10:57:44 11:01:36 34° 263° (W) 11:05:29 437.675
QB50P2 09 Feb 10:58:27 11:02:18 33° 264° (W) 11:06:09 145.880/145.840
50 SAT 09 Feb 11:00:10 11:03:54 53° 100° (E) 11:07:38 437.505
RS-15 09 Feb 11:00:30 11:11:05 52° 113° (ESE) 11:22:12 29.354- 29.394
BUGSAT 1 09 Feb 11:03:12 11:07:21 59° 259° (WSW) 11:11:30 437.445
ZACube-1 09 Feb 11:18:56 11:19:22 10° 302° (WNW) 11:19:49 437.345
JAS-2 09 Feb 11:23:47 11:30:15 33° 62° (ENE) 11:36:13 435.910
Gurwin Techsat 1B 09 Feb 11:25:19 11:28:08 15° 55° (NE) 11:30:57 435.225
CUSAT 1 09 Feb 11:25:28 11:30:56 29° 62° (ENE) 11:35:17 437.405
VELOX 1 09 Feb 11:25:47 11:30:14 78° 103° (ESE) 11:34:38 145.980
Cosmos 2499 09 Feb 11:26:17 11:33:58 33° 295° (WNW) 11:41:48 435.465 / 435.565
POPSAT HIP 1 09 Feb 11:29:33 11:32:28 18° 268° (W) 11:35:21 437.405
AO-7 09 Feb 11:32:19 11:34:55 12° 32° (NNE) 11:37:33 29.400- 29.500
NANOSAT C BR1 09 Feb 11:34:54 11:37:33 16° 269° (W) 11:40:12 145.865
DUCHIFAT 1 09 Feb 11:36:35 11:39:13 16° 269° (W) 11:41:52 145.980
HUMSAT D 09 Feb 11:40:24 11:43:03 17° 298° (WNW) 11:45:42 437.325/437.525
AISAT 09 Feb 11:42:25 11:46:50 69° 287° (WNW) 11:51:11 437.250
QB50P1 09 Feb 11:43:19 11:45:19 13° 271° (W) 11:47:20 145.935-145.965
GONETS M04 09 Feb 11:46:08 11:50:15 14° 311° (NW) 11:54:24
DANDE 09 Feb 11:53:27 12:00:09 34° 63° (ENE) 12:05:31 436.750
PCSat 09 Feb 11:54:40 11:59:51 45° 311° (NW) 12:05:05 145.827
UKube-1 09 Feb 11:58:19 12:02:34 54° 289° (WNW) 12:06:46 .
ESTCUBE 1 09 Feb 12:02:18 12:06:36 42° 291° (WNW) 12:10:53 437.505/2401.250
CUBEBUG 1 09 Feb 12:03:48 12:08:04 50° 289° (WNW) 12:12:15 437.445
ITAMSAT 1 09 Feb 12:05:42 12:09:03 18° 57° (ENE) 12:12:25 435.822/435.867
AIST 1 09 Feb 12:05:45 12:07:51 13° 296° (WNW) 12:09:57
SPROUT 09 Feb 12:08:23 12:12:40 71° 103° (ESE) 12:16:54 437.525
DX 1 09 Feb 12:09:36 12:13:37 36° 292° (WNW) 12:17:36 434.975-435.025
AO-85 09 Feb 12:16:12 12:20:52 27° 324° (NW) 12:25:32 145.980
TISAT 1 09 Feb 12:19:36 12:23:27 34° 97° (E) 12:27:16 437.305
SO-50 09 Feb 12:23:17 12:27:51 37° 42° (NE) 12:32:15 436.795
YUBILEINY 09 Feb 12:27:47 12:34:54 26° 61° (ENE) 12:41:56 435.215
Oscar 19 09 Feb 12:35:00 12:40:10 68° 258° (WSW) 12:45:21 437.125/150
50 SAT 09 Feb 12:35:25 12:37:31 15° 298° (WNW) 12:39:39 437.505
ITUPSAT 1 09 Feb 12:42:45 12:44:56 13° 88° (E) 12:47:07 437.325
Cosmos 2491 09 Feb 12:44:23 12:45:56 11° 68° (ENE) 12:47:28 435.465 / 435.565
BEESAT 09 Feb 12:50:57 12:53:52 16° 90° (E) 12:56:47 436.000
Gurwin Techsat 1B 09 Feb 13:01:59 13:07:18 84° 74° (ENE) 13:12:39 435.225
VELOX 1 09 Feb 13:03:52 13:06:08 14° 301° (WNW) 13:08:22 145.980
JAS-2 09 Feb 13:07:24 13:14:58 61° 259° (W) 13:21:53 435.910
CUSAT 1 09 Feb 13:07:42 13:13:32 43° 270° (W) 13:17:59 437.405
RS-15 09 Feb 13:12:20 13:23:27 59° 319° (NW) 13:35:14 29.354- 29.394
AO-7 09 Feb 13:17:51 13:25:23 39° 56° (NE) 13:32:55 29.400- 29.500
DANDE 09 Feb 13:36:26 13:43:29 50° 269° (W) 13:48:55 436.750
SWISSCUBE 09 Feb 13:41:59 13:46:42 51° 100° (E) 13:51:23 437.505
PCSat 09 Feb 13:42:01 13:44:42 14° 334° (NNW) 13:47:24 145.827
ITAMSAT 1 09 Feb 13:42:43 13:47:55 78° 255° (WSW) 13:53:10 435.822/435.867
SPROUT 09 Feb 13:45:53 13:48:07 14° 300° (WNW) 13:50:20 437.525
M-CUBED/EXP-1 PRIME 09 Feb 13:55:06 13:57:59 23° 62° (ENE) 14:00:45 437.505
TISAT 1 09 Feb 13:55:35 13:58:59 24° 295° (WNW) 14:02:21 437.305
AO-85 09 Feb 14:00:59 14:03:14 12° 348° (NNW) 14:05:30 145.980
SO-50 09 Feb 14:03:55 14:08:22 37° 242° (WSW) 14:12:38 436.795
AUBIESAT-1 09 Feb 14:05:11 14:08:09 25° 63° (ENE) 14:10:59 437.475
ITUPSAT 1 09 Feb 14:18:33 14:23:24 82° 285° (WNW) 14:28:13 437.325
Cosmos 2504 09 Feb 14:18:37 14:25:47 27° 61° (ENE) 14:32:34 435.465 / 435.565
YUBILEINY 09 Feb 14:23:56 14:32:50 83° 264° (W) 14:41:38 435.215
BEESAT 09 Feb 14:27:22 14:32:08 67° 288° (WNW) 14:36:54 436.000
Cosmos 2491 09 Feb 14:32:15 14:40:39 56° 90° (E) 14:49:04 435.465 / 435.565
KKS-1 09 Feb 14:36:58 14:40:39 25° 94° (E) 14:44:18 437.445
Gurwin Techsat 1B 09 Feb 14:45:06 14:47:56 14° 272° (W) 14:50:46 435.225
ISS 09 Feb 14:52:21 14:53:33 12° 133° (SE) 14:54:44 145.825
JAS-2 09 Feb 14:58:41 15:01:07 12° 277° (W) 15:03:31 435.910
HORYU 2 09 Feb 15:04:26 15:08:47 62° 72° (ENE) 15:13:10 437.375
AO-7 09 Feb 15:09:38 15:17:51 59° 257° (WSW) 15:26:08 29.400- 29.500
SWISSCUBE 09 Feb 15:20:30 15:24:10 22° 298° (WNW) 15:27:50 437.505
CUTE-I 09 Feb 15:21:34 15:23:37 12° 52° (NE) 15:25:39 437.470
ITAMSAT 1 09 Feb 15:27:07 15:28:15 11° 274° (W) 15:29:24 435.822/435.867
RS-15 09 Feb 15:28:48 15:39:02 33° 351° (N) 15:49:41 29.354- 29.394
M-CUBED/EXP-1 PRIME 09 Feb 15:29:30 15:32:36 26° 257° (WSW) 15:35:33 437.505
Cubesat XI-IV 09 Feb 15:34:00 15:37:02 15° 55° (NE) 15:40:03 437.490
AUBIESAT-1 09 Feb 15:39:43 15:42:43 24° 258° (WSW) 15:45:35 437.475
AO-85 09 Feb 15:43:55 15:46:11 13° 13° (NNE) 15:48:26 145.980
STARS 09 Feb 15:56:47 16:01:11 89° 111° (ESE) 16:05:34 437.465
ITUPSAT 1 09 Feb 15:58:27 16:00:29 13° 304° (NW) 16:02:30 437.325
MOZHAYETS 4 09 Feb 16:03:49 16:08:30 79° 104° (ESE) 16:13:08
BEESAT 09 Feb 16:08:20 16:09:01 10° 306° (NW) 16:09:43 436.000
Cosmos 2504 09 Feb 16:11:29 16:20:13 78° 264° (W) 16:28:20 435.465 / 435.565
BRITE-PL 09 Feb 16:12:18 16:16:03 19° 59° (ENE) 16:19:44 437.365/2234.400
KKS-1 09 Feb 16:13:15 16:17:20 36° 292° (WNW) 16:21:22 437.445
YUBILEINY 09 Feb 16:22:38 16:28:13 19° 285° (WNW) 16:33:46 435.215
ISS 09 Feb 16:26:15 16:29:29 69° 150° (SSE) 16:32:43 145.825
Cosmos 2491 09 Feb 16:29:55 16:37:51 38° 292° (WNW) 16:45:49 435.465 / 435.565
HORYU 2 09 Feb 16:43:17 16:45:47 15° 270° (W) 16:48:18 437.375
CUBESAT XI-V 09 Feb 16:44:08 16:47:59 24° 93° (E) 16:51:47 437.345
LilacSat-2 09 Feb 16:46:47 16:50:20 38° 71° (ENE) 16:53:54 437.200
O/OREOS (USA 219) 09 Feb 16:47:10 16:51:34 43° 59° (ENE) 16:55:57 437.305
BEESAT 3 09 Feb 16:54:09 16:57:56 44° 120° (ESE) 17:01:46 437.485
CUTE-I 09 Feb 16:57:24 17:02:41 69° 72° (ENE) 17:08:01 437.470
DOVE 4 09 Feb 17:03:41 17:06:06 14° 59° (ENE) 17:08:28 437.250
AO-7 09 Feb 17:10:04 17:12:27 11° 277° (W) 17:14:50 29.400- 29.500
Cubesat XI-IV 09 Feb 17:11:00 17:16:20 88° 73° (ENE) 17:21:44 437.490
PCSat 09 Feb 17:13:43 17:16:48 15° 28° (NNE) 17:19:53 145.827
BEESAT 2 09 Feb 17:17:46 17:21:39 51° 121° (ESE) 17:25:35 435.950
GOMX 1 09 Feb 17:18:24 17:23:09 33° 67° (ENE) 17:27:42 467.674
AO-85 09 Feb 17:23:54 17:28:31 29° 37° (NE) 17:32:52 145.980
STARS 09 Feb 17:35:14 17:36:54 12° 303° (WNW) 17:38:32 437.465
MOZHAYETS 4 09 Feb 17:42:32 17:45:04 15° 301° (WNW) 17:47:36
HO-68 09 Feb 17:44:06 17:50:06 30° 56° (ENE) 17:56:06 435.675
RS-15 09 Feb 17:44:36 17:55:40 40° 25° (NNE) 18:07:01 29.354- 29.394
BRITE-PL 09 Feb 17:48:11 17:53:54 83° 259° (WSW) 17:59:28 437.365/2234.400
GONETS M04 09 Feb 17:53:00 17:59:24 22° 57° (ENE) 18:05:48
CINEMA 3 09 Feb 17:59:37 18:02:13 15° 61° (ENE) 18:04:45 145.822/145.860
ISS 09 Feb 18:03:02 18:06:06 37° 349° (N) 18:09:10 145.825
Cosmos 2504 09 Feb 18:06:56 18:12:01 17° 287° (WNW) 18:16:56 435.465 / 435.565
COMPASS 1 09 Feb 18:13:06 18:14:58 13° 59° (ENE) 18:16:49 437.405
CUTE 1.7 + AOD 2 09 Feb 18:18:21 18:21:43 24° 65° (ENE) 18:25:07 437.475
CUBESAT XI-V 09 Feb 18:21:05 18:25:32 42° 291° (WNW) 18:29:57 437.345
LilacSat-2 09 Feb 18:22:12 18:24:50 18° 268° (W) 18:27:28 437.200
SEEDS 09 Feb 18:25:18 18:28:30 22° 65° (ENE) 18:31:43 437.485
O/OREOS (USA 219) 09 Feb 18:27:05 18:30:43 24° 257° (WSW) 18:34:22 437.305
BEESAT 3 09 Feb 18:32:32 18:35:53 25° 319° (NW) 18:39:15 437.485
DOVE 4 09 Feb 18:38:04 18:43:10 88° 82° (E) 18:48:01 437.250
CUTE-I 09 Feb 18:39:41 18:43:16 18° 270° (W) 18:46:52 437.470
AAUSAT CUBESAT 2 09 Feb 18:40:38 18:43:38 20° 64° (ENE) 18:46:38 437.432
Cubesat XI-IV 09 Feb 18:54:31 18:57:09 14° 273° (W) 18:59:47 437.490
STRAND 1 09 Feb 18:55:50 19:00:57 59° 101° (E) 19:06:02 437.568
GOMX 1 09 Feb 18:56:07 19:01:08 38° 263° (W) 19:05:58 467.674
PCSat 09 Feb 18:56:10 19:01:30 52° 51° (NE) 19:06:48 145.827
BEESAT 2 09 Feb 18:56:33 18:59:49 23° 321° (NW) 19:03:06 435.950
CANX-2 09 Feb 19:02:23 19:06:34 74° 76° (ENE) 19:10:49 2200.000
AO-85 09 Feb 19:04:19 19:09:28 61° 239° (WSW) 19:14:11 145.980
ZACube-1 09 Feb 19:04:37 19:06:27 13° 60° (ENE) 19:08:16 437.345
AIST 2 09 Feb 19:11:09 19:15:19 80° 127° (SE) 19:19:31 435.215
FUNcube-1 09 Feb 19:13:12 19:15:32 15° 61° (ENE) 19:17:51 145.935
Cosmos 2499 09 Feb 19:20:21 19:27:40 30° 63° (ENE) 19:34:29 435.465 / 435.565
HO-68 09 Feb 19:30:11 19:37:19 67° 257° (WSW) 19:44:31 435.675
BRITE-PL 09 Feb 19:30:28 19:33:06 13° 274° (W) 19:35:42 437.365/2234.400
CINEMA 3 09 Feb 19:34:18 19:38:54 70° 259° (WSW) 19:43:20 145.822/145.860
ISS 09 Feb 19:39:58 19:43:02 36° 10° (N) 19:46:04 145.825
CUBEBUG 2 09 Feb 19:42:34 19:46:46 54° 73° (ENE) 19:50:54 437.445
UWE-3 09 Feb 19:43:52 19:47:51 41° 70° (ENE) 19:51:47 435.000/436.395/437.385
Oscar 11 09 Feb 19:44:25 19:48:24 39° 69° (ENE) 19:52:26 145.826/435.025
COMPASS 1 09 Feb 19:45:49 19:49:57 75° 257° (WSW) 19:54:09 437.405
GONETS M04 09 Feb 19:48:51 19:57:42 84° 82° (E) 20:06:33
CUTE 1.7 + AOD 2 09 Feb 19:53:31 19:57:24 36° 263° (W) 20:01:20 437.475
DELFI C3 09 Feb 19:55:19 19:58:41 27° 67° (ENE) 20:02:04 145.870
RS-15 09 Feb 19:57:47 20:09:59 86° 54° (NE) 20:22:23 29.354- 29.394
SEEDS 09 Feb 20:00:04 20:03:59 39° 262° (W) 20:07:58 437.485
PRISM 09 Feb 20:00:24 20:04:36 88° 97° (E) 20:08:47 437.425
AAUSAT CUBESAT 2 09 Feb 20:14:54 20:18:51 44° 262° (W) 20:22:51 437.432
DOVE 4 09 Feb 20:19:21 20:21:26 12° 272° (W) 20:23:29 437.250
AIST 1 09 Feb 20:29:52 20:33:28 24° 70° (ENE) 20:37:01
STRAND 1 09 Feb 20:35:49 20:39:44 22° 300° (WNW) 20:43:37 437.568
ZACube-1 09 Feb 20:38:00 20:42:12 75° 258° (WSW) 20:46:23 437.345
PCSat 09 Feb 20:40:03 20:44:37 28° 250° (WSW) 20:49:09 145.827
CANX-2 09 Feb 20:41:34 20:42:59 11° 273° (W) 20:44:25 2200.000
FUNcube-1 09 Feb 20:47:11 20:51:20 63° 259° (W) 20:55:29 145.935
AIST 2 09 Feb 20:51:22 20:54:21 19° 325° (NW) 20:57:19 435.215
VELOX 1 09 Feb 20:52:09 20:54:13 13° 58° (ENE) 20:56:17 145.980
HUMSAT D 09 Feb 20:57:42 21:01:41 54° 72° (ENE) 21:05:41 437.325/437.525
